sat.trackr.live / text

‹ back to catalog

STARLINK-6282

NORAD 56407 · 2023-061AK

PAYLOAD ACTIVE UNKNOWN

§ Identity

Operator
Country
US
Launch date
2023-05-04
Launch site
AFETR
Launch vehicle
Mass (kg)
RCS (m²)

Purposes: comms

External: N2YO · Heavens-Above · Gunter

§ Orbital elements

Epoch: 2026-09-19T23:00:04.687776Z

Period
94.27 min
Inclination
43.0020°
Eccentricity
0.0001342
Mean motion
15.27575759 rev/d
Perigee alt
482.1 km
Apogee alt
484.0 km
Semi-major
6,861.2 km
B*
-1.3748e-5
RAAN
170.0665°
Arg perigee
265.1749°
Mean anomaly
94.8950°
Rev number
18,658

§ Raw data

STARLINK-62821 56407U 23061AK  26262.95838759 -.00000640  00000+0 -13748-4 0  99942 56407  43.0020 170.0665 0001342 265.1749  94.8950 15.27575759186588

JSON: /api/v1/satellites/56407 · /tle

For live sub-satellite position, see the globe view (requires WebGL).

§ Visibility from observer

Set your observer location to see the next 7 days of passes ≥ 10°. The values pass through the URL so the page stays shareable.

No JS? Fill the form by hand. The geolocation button needs JavaScript.